FENGYUN 4A

Last updated on Mon Sep 21 2026 00:02:41 GMT+0000 (Coordinated Universal Time)

1 41882U 16077A 26263.59643255 -.00000361 00000+0 00000+0 0 9991 2 41882 2.5575 79.0668 0007856 165.7929 92.4618 1.00270548 35881
UTC large
Height (km)
Speed (km/s)
/
Latitude / Longitude
Inclination (degrees)
Orbital Period (minutes)
Azimuth
Elevation
Range (km)
Doppler Factor

Next 0 passes for location: London (51.5072 / 0.1276)

No passes found over London.
FENGYUN 4A